ORBCOMM FM112

Last updated on Sun Jun 21 2026 00:03:16 GMT+0000 (Coordinated Universal Time)

1 41184U 15081F 26171.36150830 .00000353 00000+0 11089-3 0 9998 2 41184 46.9987 255.2369 0003896 230.7035 129.3505 14.58908028559415
UTC large
Height (km)
Speed (km/s)
/
Latitude / Longitude
Inclination (degrees)
Orbital Period (minutes)
Azimuth
Elevation
Range (km)
Doppler Factor

Next 0 passes for location: London (51.5072 / 0.1276)

No passes found over London.
ORBCOMM FM112